Total_Precipitation_Accumulation
0.07 0.09 0.27 0.35 0.40 0.40 0.39 0.40 0.36 0.33 0.34 0.36 0.37 0.37 0.34 0.35 0.37 0.37 0.40 0.44 0.46 0.45 0.48 0.57 0.59 0.62 0.61 0.59 0.60 0.57 0.50 0.46 0.46 0.45 0.51 0.55 0.51 0.42 0.36 0.33 0.28 0.34 0.42
0.05 0.07 0.19 0.26 0.32 0.36 0.38 0.37 0.32 0.27 0.29 0.31 0.29 0.29 0.29 0.29 0.31 0.33 0.40 0.46 0.50 0.46 0.48 0.54 0.60 0.61 0.61 0.58 0.58 0.52 0.40 0.31 0.27 0.25 0.27 0.35 0.41 0.41 0.37 0.34 0.33 0.46 0.49
0.03 0.05 0.13 0.21 0.27 0.31 0.33 0.32 0.28 0.25 0.24 0.26 0.25 0.27 0.27 0.28 0.31 0.33 0.40 0.43 0.47 0.51 0.50 0.52 0.65 0.68 0.69 0.64 0.58 0.49 0.39 0.26 0.17 0.15 0.15 0.26 0.38 0.45 0.42 0.37 0.36 0.41 0.45
0.02 0.03 0.06 0.17 0.25 0.30 0.31 0.29 0.27 0.25 0.23 0.24 0.24 0.27 0.28 0.30 0.30 0.34 0.41 0.46 0.49 0.58 0.59 0.64 0.70 0.69 0.66 0.58 0.53 0.46 0.40 0.27 0.15 0.12 0.10 0.22 0.39 0.50 0.46 0.42 0.37 0.38 0.42
0.01 0.02 0.06 0.15 0.23 0.28 0.30 0.31 0.29 0.25 0.22 0.23 0.25 0.26 0.29 0.31 0.32 0.32 0.35 0.43 0.49 0.58 0.57 0.57 0.62 0.61 0.59 0.55 0.48 0.49 0.49 0.35 0.18 0.08 0.07 0.16 0.32 0.53 0.50 0.47 0.40 0.35 0.38
0.01 0.01 0.05 0.14 0.24 0.26 0.30 0.34 0.35 0.29 0.26 0.25 0.26 0.28 0.29 0.33 0.33 0.33 0.32 0.32 0.37 0.43 0.45 0.50 0.52 0.53 0.52 0.49 0.42 0.45 0.53 0.44 0.20 0.08 0.09 0.14 0.27 0.48 0.50 0.48 0.42 0.38 0.35
0.01 0.02 0.05 0.15 0.24 0.26 0.28 0.33 0.35 0.30 0.28 0.27 0.29 0.32 0.32 0.33 0.34 0.33 0.28 0.27 0.27 0.30 0.34 0.42 0.49 0.53 0.53 0.48 0.43 0.46 0.51 0.41 0.18 0.15 0.17 0.17 0.24 0.35 0.51 0.54 0.48 0.44 0.40
0.01 0.02 0.06 0.17 0.25 0.27 0.28 0.31 0.38 0.34 0.31 0.29 0.31 0.34 0.36 0.38 0.39 0.37 0.31 0.26 0.25 0.24 0.26 0.31 0.43 0.59 0.58 0.46 0.44 0.49 0.46 0.27 0.13 0.12 0.16 0.20 0.24 0.40 0.72 0.82 0.62 0.51 0.47
0.02 0.03 0.07 0.15 0.21 0.27 0.28 0.31 0.37 0.35 0.34 0.34 0.35 0.36 0.37 0.38 0.38 0.39 0.37 0.33 0.33 0.30 0.28 0.29 0.36 0.55 0.57 0.49 0.49 0.51 0.37 0.18 0.09 0.15 0.15 0.23 0.23 0.47 0.84 0.94 0.82 0.65 0.54
0.04 0.04 0.08 0.14 0.18 0.23 0.27 0.30 0.33 0.34 0.35 0.36 0.36 0.34 0.31 0.32 0.36 0.35 0.31 0.29 0.32 0.33 0.32 0.29 0.31 0.42 0.48 0.48 0.55 0.48 0.24 0.12 0.08 0.11 0.21 0.21 0.20 0.49 0.91 1.01 0.94 0.79 0.65
0.06 0.07 0.09 0.15 0.19 0.23 0.26 0.27 0.30 0.32 0.32 0.33 0.33 0.29 0.29 0.29 0.30 0.29 0.24 0.23 0.28 0.32 0.33 0.34 0.34 0.38 0.42 0.40 0.45 0.35 0.17 0.09 0.09 0.13 0.21 0.19 0.22 0.47 0.88 1.05 0.99 0.91 0.82
0.07 0.08 0.11 0.15 0.18 0.23 0.24 0.27 0.31 0.31 0.28 0.26 0.25 0.26 0.28 0.30 0.32 0.30 0.26 0.24 0.28 0.29 0.33 0.39 0.42 0.40 0.38 0.34 0.44 0.35 0.18 0.13 0.12 0.09 0.12 0.12 0.25 0.49 0.77 0.98 1.07 0.99 0.94
0.07 0.10 0.15 0.20 0.23 0.24 0.26 0.27 0.30 0.32 0.32 0.30 0.28 0.28 0.33 0.37 0.37 0.35 0.33 0.30 0.29 0.28 0.30 0.34 0.40 0.36 0.39 0.52 0.67 0.52 0.35 0.28 0.18 0.10 0.07 0.09 0.21 0.41 0.64 0.83 1.03 1.13 1.12
0.08 0.10 0.14 0.20 0.25 0.28 0.31 0.33 0.29 0.28 0.28 0.29 0.30 0.29 0.31 0.33 0.32 0.31 0.28 0.28 0.29 0.29 0.30 0.31 0.32 0.35 0.37 0.45 0.50 0.45 0.36 0.31 0.22 0.17 0.11 0.10 0.14 0.24 0.41 0.61 0.83 1.11 1.21
0.08 0.10 0.13 0.16 0.20 0.25 0.31 0.35 0.33 0.30 0.28 0.26 0.26 0.26 0.25 0.25 0.27 0.26 0.24 0.23 0.23 0.24 0.27 0.28 0.27 0.28 0.32 0.35 0.35 0.34 0.32 0.28 0.23 0.21 0.18 0.15 0.13 0.16 0.27 0.44 0.62 0.88 1.16
0.08 0.10 0.12 0.14 0.16 0.21 0.24 0.28 0.34 0.36 0.34 0.30 0.26 0.25 0.24 0.23 0.22 0.21 0.20 0.19 0.19 0.20 0.20 0.23 0.24 0.26 0.27 0.29 0.27 0.26 0.26 0.23 0.22 0.22 0.21 0.20 0.18 0.17 0.24 0.36 0.50 0.65 0.94
0.08 0.11 0.13 0.14 0.15 0.19 0.22 0.25 0.28 0.33 0.35 0.33 0.27 0.24 0.23 0.22 0.21 0.19 0.19 0.18 0.17 0.19 0.23 0.29 0.32 0.35 0.35 0.34 0.30 0.30 0.28 0.26 0.24 0.26 0.27 0.25 0.25 0.23 0.25 0.38 0.48 0.57 0.76
0.08 0.11 0.14 0.16 0.16 0.19 0.23 0.28 0.29 0.30 0.32 0.30 0.28 0.27 0.26 0.25 0.25 0.24 0.23 0.21 0.19 0.21 0.26 0.33 0.38 0.39 0.37 0.38 0.36 0.37 0.37 0.37 0.32 0.33 0.35 0.31 0.30 0.28 0.27 0.32 0.44 0.54 0.70
0.07 0.09 0.13 0.17 0.17 0.19 0.25 0.32 0.30 0.31 0.34 0.32 0.31 0.31 0.30 0.32 0.32 0.30 0.27 0.25 0.25 0.26 0.29 0.32 0.35 0.38 0.38 0.41 0.43 0.43 0.45 0.46 0.42 0.38 0.34 0.32 0.30 0.28 0.29 0.31 0.37 0.43 0.58
0.08 0.09 0.11 0.15 0.20 0.21 0.27 0.35 0.37 0.34 0.35 0.35 0.31 0.29 0.32 0.34 0.35 0.34 0.33 0.31 0.31 0.32 0.33 0.35 0.37 0.38 0.39 0.44 0.48 0.46 0.48 0.48 0.46 0.42 0.38 0.39 0.38 0.31 0.29 0.30 0.34 0.34 0.39
0.07 0.10 0.12 0.13 0.21 0.25 0.25 0.29 0.32 0.30 0.31 0.33 0.32 0.29 0.31 0.32 0.33 0.34 0.33 0.33 0.34 0.33 0.33 0.36 0.36 0.36 0.36 0.39 0.44 0.40 0.37 0.38 0.40 0.37 0.35 0.37 0.40 0.42 0.41 0.38 0.35 0.35 0.36
0.05 0.08 0.11 0.12 0.16 0.22 0.22 0.23 0.27 0.27 0.30 0.32 0.33 0.33 0.33 0.33 0.32 0.32 0.32 0.34 0.35 0.35 0.32 0.32 0.35 0.37 0.34 0.35 0.43 0.47 0.40 0.35 0.32 0.29 0.28 0.31 0.36 0.42 0.45 0.47 0.46 0.43 0.40
0.06 0.07 0.10 0.11 0.13 0.18 0.24 0.27 0.33 0.36 0.34 0.35 0.34 0.32 0.33 0.33 0.33 0.33 0.33 0.34 0.34 0.37 0.37 0.32 0.32 0.37 0.38 0.36 0.39 0.55 0.62 0.45 0.32 0.25 0.26 0.27 0.29 0.30 0.32 0.36 0.41 0.45 0.46
0.08 0.09 0.11 0.14 0.13 0.14 0.19 0.28 0.32 0.34 0.31 0.26 0.26 0.28 0.31 0.32 0.32 0.33 0.34 0.35 0.37 0.38 0.39 0.40 0.37 0.38 0.40 0.40 0.39 0.41 0.47 0.49 0.56 0.40 0.19 0.17 0.20 0.22 0.24 0.25 0.28 0.32 0.38
0.07 0.09 0.11 0.16 0.17 0.15 0.15 0.20 0.28 0.33 0.32 0.32 0.32 0.32 0.33 0.35 0.35 0.35 0.34 0.35 0.36 0.36 0.37 0.39 0.40 0.43 0.44 0.44 0.45 0.43 0.38 0.35 0.44 0.60 0.37 0.17 0.16 0.16 0.18 0.22 0.26 0.30 0.34
0.05 0.07 0.11 0.13 0.17 0.17 0.19 0.19 0.25 0.31 0.34 0.38 0.42 0.39 0.36 0.36 0.36 0.36 0.36 0.35 0.36 0.36 0.35 0.38 0.40 0.41 0.43 0.44 0.45 0.46 0.49 0.50 0.44 0.53 0.51 0.29 0.22 0.17 0.16 0.19 0.23 0.29 0.36